Location: Newark
(25.4800°N, 85.7200°E)
Time: 00:14:08
(UTC+00:00)

Vanguard 2 Rocket - All Passes

Search period start: 22 August 2019 00:00
Search period end: 01 September 2019 00:00
Orbit: 553 x 3327 km, 32.9° (Epoch: 20 August)

Date Brightness Start Highest point End Pass type
(mag) Time Alt. Az. Time Alt. Az. Time Alt. Az.
22 Aug - 02:09:02 10° WNW 02:29:08 89° NNE 02:47:18 10° ESE daylight
22 Aug - 04:28:07 10° WNW 04:47:03 50° SW 05:01:03 10° SSE daylight
22 Aug - 06:55:27 10° WSW 07:01:36 13° SW 07:06:56 10° SSW daylight
22 Aug - 18:25:20 10° SSW 18:32:35 37° SE 18:44:33 10° ENE visible
22 Aug - 20:36:40 10° WSW 20:47:08 87° NNW 21:05:22 10° ENE visible
22 Aug - 22:51:13 10° W 23:05:46 67° N 23:26:16 10° E visible
23 Aug - 01:07:33 10° WNW 01:26:18 79° NNE 01:45:59 10° ESE daylight
23 Aug - 03:25:25 10° WNW 03:45:27 64° SW 04:01:36 10° SE daylight
23 Aug - 05:47:53 10° W 06:01:14 24° SW 06:11:39 10° S daylight
23 Aug - 17:27:59 10° S 17:33:17 21° SE 17:40:50 10° E visible
23 Aug - 19:37:29 10° SW 19:46:18 77° SSE 20:02:18 10° ENE visible
23 Aug - 21:50:58 10° W 22:03:24 69° N 22:23:06 10° ENE visible
24 Aug - 00:06:31 10° WNW 00:23:23 72° NNE 00:43:55 10° E daylight
24 Aug - 02:23:24 10° WNW 02:43:17 78° SSW 03:01:24 10° SE daylight
24 Aug - 04:43:17 10° WNW 05:00:25 36° SW 05:13:49 10° SSE daylight
24 Aug - 18:38:47 10° SW 18:46:10 55° SE 18:59:20 10° ENE visible
24 Aug - 20:51:09 10° W 21:01:39 74° NNW 21:19:50 10° ENE visible
24 Aug - 23:05:54 10° WNW 23:20:37 68° N 23:41:09 10° E visible
25 Aug - 01:21:58 10° WNW 01:40:43 90° NNE 02:00:24 10° ESE daylight
25 Aug - 03:40:05 10° WNW 03:59:04 50° SW 04:14:52 10° SSE daylight
25 Aug - 06:06:26 10° WSW 06:14:35 14° SW 06:21:41 10° SSW daylight
25 Aug - 17:40:39 10° SSW 17:46:39 34° SE 17:56:25 10° ENE visible
25 Aug - 19:51:43 10° WSW 20:00:33 85° NNW 20:16:41 10° ENE visible
25 Aug - 22:05:40 10° W 22:18:14 66° N 22:37:54 10° E visible
26 Aug - 00:21:01 10° WNW 00:38:00 80° NNE 00:58:35 10° ESE daylight
26 Aug - 02:37:51 10° WNW 02:57:10 64° SW 03:15:03 10° SE daylight
26 Aug - 04:59:28 10° W 05:13:46 25° SW 05:25:41 10° S daylight
26 Aug - 16:43:30 10° S 16:47:35 18° SE 16:53:06 10° E night (unlit)
26 Aug - 18:52:43 10° WSW 19:00:06 78° SSE 19:13:48 10° ENE visible
26 Aug - 21:05:48 10° W 21:16:22 66° N 21:34:28 10° ENE visible
26 Aug - 23:20:29 10° WNW 23:35:22 72° NNE 23:56:00 10° E visible
27 Aug - 01:36:20 10° WNW 01:54:52 77° SSW 02:14:25 10° SE daylight
27 Aug - 03:55:18 10° W 04:12:33 37° SW 04:27:29 10° SSE daylight
27 Aug - 17:54:07 10° SW 18:00:18 54° SE 18:11:13 10° ENE visible
27 Aug - 20:06:15 10° W 20:15:06 71° NNW 20:31:08 10° ENE visible
27 Aug - 22:20:19 10° WNW 22:33:03 66° N 22:52:49 10° E visible
28 Aug - 00:35:25 10° WNW 00:52:23 89° SSW 01:12:57 10° ESE daylight
28 Aug - 02:52:34 10° WNW 03:10:52 49° SW 03:28:11 10° SSE daylight
28 Aug - 05:17:55 10° WSW 05:27:18 15° SW 05:35:44 10° SSW daylight
28 Aug - 16:56:05 10° SSW 17:01:02 31° SE 17:08:46 10° E night (unlit)
28 Aug - 19:07:01 10° WSW 19:14:24 81° NNW 19:28:10 10° ENE visible
28 Aug - 21:20:28 10° W 21:31:10 63° N 21:49:17 10° E visible
28 Aug - 23:34:56 10° WNW 23:49:56 80° NNE 00:10:40 10° ESE visible
29 Aug - 01:50:49 10° WNW 02:08:48 62° SSW 02:27:58 10° SE daylight
29 Aug - 04:11:31 10° W 04:26:04 25° SW 04:39:13 10° S daylight
29 Aug - 15:59:07 10° SSE 16:02:07 15° SE 16:05:51 10° E night (unlit)
29 Aug - 18:08:06 10° WSW 18:14:19 79° SSE 18:25:40 10° ENE visible
29 Aug - 20:20:54 10° W 20:29:49 63° N 20:45:47 10° ENE visible
29 Aug - 22:34:52 10° WNW 22:47:44 72° NNE 23:07:41 10° E visible
30 Aug - 00:49:48 10° WNW 01:06:32 75° SSW 01:26:54 10° SE daylight
30 Aug - 03:07:49 10° W 03:24:30 36° SW 03:40:39 10° SSE daylight
30 Aug - 17:09:34 10° SW 17:14:46 52° SE 17:23:35 10° ENE visible
30 Aug - 19:21:33 10° W 19:28:58 66° N 19:42:37 10° ENE visible
30 Aug - 21:35:05 10° WNW 21:45:56 65° N 22:04:13 10° E visible
30 Aug - 23:49:19 10° WNW 00:04:16 88° SSW 00:25:01 10° ESE daylight
31 Aug - 02:05:34 10° WNW 02:22:37 48° SW 02:40:57 10° SSE daylight
31 Aug - 04:29:59 10° WSW 04:39:49 16° SW 04:49:06 10° SSW daylight
31 Aug - 16:11:32 10° SSW 16:15:40 28° SE 16:21:42 10° E night (unlit)
31 Aug - 18:22:27 10° WSW 18:28:39 76° NNW 18:40:02 10° ENE visible
31 Aug - 20:35:33 10° WNW 20:44:35 60° N 21:00:36 10° E visible
31 Aug - 22:49:17 10° WNW 23:02:14 81° NNE 23:22:20 10° ESE visible
